• MPC Preparation (Info)

  • MPEC 2016-O192: 2014 AN55

    The following Minor Planet Electronic Circular may be linked-to from your own Web pages, but must not otherwise be redistributed electronically.

    A form allowing access to any MPEC is at the bottom of this page.


    Read MPEC 2016-O191 Read MPEC 2016-O193


    M.P.E.C. 2016-O192                               Issued 2016 July 17, 15:44 UT
    
         The Minor Planet Electronic Circulars contain information on unusual
             minor planets and routine data on comets.  They are published
        on behalf of Division F of the International Astronomical Union by the
              Minor Planet Center, Smithsonian Astrophysical Observatory,
                              Cambridge, MA 02138, U.S.A.
    
                 Prepared using the Tamkin Foundation Computer Network
    
                                  MPC@CFA.HARVARD.EDU
                URL https://www.minorplanetcenter.net/    ISSN 1523-6714
    
                                       2014 AN55
    
    Observations:
         K14A55N  C2011 01 30.34456 09 07 56.117+11 05 53.79         21.1 wLEO192F51
         K14A55N  C2011 01 30.35912 09 07 56.055+11 05 54.00         20.9 wLEO192F51
         K14A55N  C2011 01 30.37475 09 07 55.994+11 05 54.25         21.0 wLEO192F51
         K14A55N  C2011 01 30.38927 09 07 55.929+11 05 54.47         20.9 wLEO192F51
         K14A55N  C2012 02 03.53563 09 11 32.964+10 40 14.26         20.6 iLEO192F51
         K14A55N  C2012 02 03.54851 09 11 32.910+10 40 14.56         20.5 iLEO192F51
         K14A55N  C2012 02 03.56311 09 11 32.849+10 40 14.89         20.8 rLEO192F51
         K14A55N  C2012 02 03.58202 09 11 32.766+10 40 15.07         21.0 rLEO192F51
         K14A55N  C2012 02 22.42767 09 10 14.496+10 45 57.91         21.3 wLEO192F51
         K14A55N  C2012 02 22.44447 09 10 14.418+10 45 57.77         21.4 wLEO192F51
         K14A55N  C2012 02 22.46125 09 10 14.354+10 45 58.68         21.1 wLEO192F51
         K14A55N  C2012 02 22.47808 09 10 14.292+10 45 58.81         21.1 wLEO192F51
         K14A55N  C2013 01 10.52691 09 17 03.502+10 06 57.24         20.8 wLEO192F51
         K14A55N  C2013 01 10.52758 09 17 03.501+10 06 57.19         21.2 wLEO192F51
         K14A55N  C2013 01 10.54071 09 17 03.451+10 06 57.40         20.7 wLEO192F51
         K14A55N  C2013 01 10.54141 09 17 03.449+10 06 57.31         21.2 wLEO192F51
         K14A55N  C2013 01 10.55456 09 17 03.399+10 06 57.52         20.8 wLEO192F51
         K14A55N  C2013 01 10.55522 09 17 03.396+10 06 57.56         21.2 wLEO192F51
         K14A55N  C2013 01 10.56846 09 17 03.352+10 06 57.79         20.7 wLEO192F51
         K14A55N  C2013 01 10.56912 09 17 03.338+10 06 57.67         21.1 wLEO192F51
         K14A55N* C2014 01 05.43451 09 21 21.963+09 37 55.41         21.1 wLEO192F51
         K14A55N  C2014 01 05.44964 09 21 21.901+09 37 55.59         21.0 wLEO192F51
         K14A55N  C2014 01 05.46482 09 21 21.856+09 37 55.76         21.1 wLEO192F51
         K14A55N  C2014 01 05.47995 09 21 21.805+09 37 55.80         21.1 wLEO192F51
         K14A55N  C2014 01 25.39295 09 20 05.450+09 42 25.82         21.1 wLEO192F51
         K14A55N  C2014 01 25.40450 09 20 05.402+09 42 26.02         21.1 wLEO192F51
         K14A55N  C2014 01 25.41603 09 20 05.347+09 42 26.23         21.1 wLEO192F51
         K14A55N  C2014 01 25.42752 09 20 05.308+09 42 26.40         21.1 wLEO192F51
         K14A55N  C2014 02 28.31762 09 17 44.413+09 52 53.76         20.9 wLEO192F51
         K14A55N  C2014 02 28.33067 09 17 44.365+09 52 53.98         21.0 wLEO192F51
         K14A55N  C2014 02 28.34381 09 17 44.309+09 52 54.26         21.0 wLEO192F51
         K14A55N  C2014 03 24.24325 09 16 23.952+10 00 11.88         21.1 wLEO192F51
         K14A55N  C2014 03 24.25478 09 16 23.919+10 00 12.08         21.3 wLEO192F51
         K14A55N  C2014 03 24.26638 09 16 23.880+10 00 12.14         21.2 wLEO192F51
         K14A55N  C2014 03 24.27800 09 16 23.847+10 00 12.31         21.1 wLEO192F51
         K14A55N  C2014 05 25.26021 09 15 56.917+10 07 49.06         21.2 wLEO192F51
         K14A55N  C2014 05 25.26484 09 15 56.926+10 07 48.95         21.1 wLEO192F51
         K14A55N  C2014 05 25.26949 09 15 56.931+10 07 48.92         21.3 wLEO192F51
         K14A55N  C2014 11 26.54766 09 26 49.193+09 07 41.98         21.2 wLEO192F51
         K14A55N  C2014 11 26.55892 09 26 49.196+09 07 41.79         21.3 wLEO192F51
         K14A55N  C2014 11 26.57017 09 26 49.189+09 07 41.82         21.3 wLEO192F51
         K14A55N  C2014 11 26.58140 09 26 49.179+09 07 41.67         21.3 wLEO192F51
         K14A55N  C2015 01 20.54192 09 24 28.881+09 12 28.47         21.0 wLEO192F51
         K14A55N  C2015 01 20.55451 09 24 28.825+09 12 28.66         21.0 wLEO192F51
         K14A55N  C2015 01 20.56708 09 24 28.777+09 12 28.85         20.9 wLEO192F51
         K14A55N  C2015 01 20.57978 09 24 28.725+09 12 29.06         20.9 wLEO192F51
         K14A55N  C2015 01 22.55245 09 24 20.785+09 12 59.11         21.0 wLEO192F51
         K14A55N  C2015 01 22.56478 09 24 20.732+09 12 59.28         20.9 wLEO192F51
         K14A55N  C2015 01 22.57707 09 24 20.685+09 12 59.49         21.1 wLEO192F51
         K14A55N  C2015 01 22.58939 09 24 20.634+09 12 59.66         21.0 wLEO192F51
         K14A55N  C2015 03 10.30536 09 21 09.906+09 27 37.80         21.2 wLEO192F51
         K14A55N  C2015 03 10.31773 09 21 09.864+09 27 38.06         21.2 wLEO192F51
         K14A55N  C2015 03 10.33010 09 21 09.825+09 27 38.11         21.0 wLEO192F51
         K14A55N  C2015 03 18.24299 09 20 43.214+09 30 07.32         21.1 wLEO192F51
         K14A55N  C2015 03 18.25522 09 20 43.175+09 30 07.51         21.1 wLEO192F51
         K14A55N  C2015 03 18.26736 09 20 43.130+09 30 07.73         21.0 wLEO192F51
         K14A55N  C2015 03 18.27948 09 20 43.088+09 30 07.96         21.1 wLEO192F51
         K14A55N  C2015 03 19.40781 09 20 39.557+09 30 28.45         21.0 wLEO192F51
         K14A55N  C2015 03 19.41978 09 20 39.523+09 30 28.72         21.1 wLEO192F51
         K14A55N  C2015 03 19.43177 09 20 39.483+09 30 28.89         21.1 wLEO192F51
         K14A55N  C2015 03 19.44377 09 20 39.437+09 30 29.08         21.1 wLEO192F51
         K14A55N  C2015 06 09.27030 09 20 29.136+09 38 40.50         21.3 wLEO192F51
         K14A55N  C2015 06 09.27557 09 20 29.159+09 38 40.56         21.2 wLEO192F51
         K14A55N  C2015 06 09.28085 09 20 29.170+09 38 40.39         21.2 wLEO192F51
         K14A55N  C2015 06 09.28614 09 20 29.154+09 38 40.47         21.2 wLEO192F51
    
    Observer details:
    F51 Pan-STARRS 1, Haleakala.  Observers B. Gibson, T. Goggia, N. Primak,
        A. Schultz, M. Willman.  Measurers K. Chambers, S. Chastel, Y.-T. Chen,
        L. Denneau, H. Flewelling, M. Holman, M. Huber, R. Jedicke, M. Lackner,
        E. Lilly, H.-W. Lin, E. Magnier, M. Micheli, M. Payne, P. Veres,
        R. Wainscoat, C. Waters, R. Weryk.  1.8-m Ritchey-Chretien + CCD.
    
    Orbital elements:
    2014 AN55
    Epoch 2016 July 31.0 TT = JDT 2457600.5                 MPC
    M 315.13617              (2000.0)            P               Q
    n   0.00231403     Peri.  306.31931     -0.63077107     +0.75955789
    a  56.6096218      Node   283.79222     -0.64922028     -0.62862936
    e   0.3900165      Incl.    9.40761     -0.42501868     -0.16702375
    P 426              H    4.1           G   0.15           U   2
    Residuals in seconds of arc
    110130 F51  0.1-  0.0     140105 F51  0.1-  0.0     150120 F51  0.0   0.1+
    110130 F51  0.1-  0.0     140105 F51  0.0   0.1-    150120 F51  0.0   0.1+
    110130 F51  0.0   0.0     140125 F51  0.1-  0.1+    150122 F51  0.0   0.1+
    110130 F51  0.0   0.0     140125 F51  0.1-  0.1+    150122 F51  0.0   0.0
    120203 F51  0.1-  0.1-    140125 F51  0.2-  0.1+    150122 F51  0.0   0.1+
    120203 F51  0.1-  0.0     140125 F51  0.1-  0.1+    150122 F51  0.0   0.0
    120203 F51  0.1-  0.1+    140228 F51  0.0   0.0     150310 F51  0.1-  0.1-
    120203 F51  0.1-  0.0     140228 F51  0.1+  0.1-    150310 F51  0.0   0.0
    120222 F51  0.1+  0.0     140228 F51  0.0   0.0     150310 F51  0.1+  0.2-
    120222 F51  0.0   0.5-    140324 F51  0.1+  0.1+    150318 F51  0.0   0.0
    120222 F51  0.0   0.1+    140324 F51  0.1+  0.1+    150318 F51  0.0   0.0
    120222 F51  0.1+  0.0     140324 F51  0.0   0.0     150318 F51  0.0   0.0
    130110 F51  0.1+  0.1+    140324 F51  0.0   0.1-    150318 F51  0.1-  0.0
    130110 F51  0.1+  0.0     140525 F51  0.0   0.1+    150319 F51  0.0   0.1-
    130110 F51  0.1+  0.0     140525 F51  0.0   0.0     150319 F51  0.1+  0.0
    130110 F51  0.1+  0.1-    140525 F51  0.0   0.0     150319 F51  0.0   0.1-
    130110 F51  0.1+  0.0     141126 F51  0.0   0.1+    150319 F51  0.1-  0.1-
    130110 F51  0.1+  0.0     141126 F51  0.1+  0.0     150609 F51  0.0   0.1-
    130110 F51  0.2+  0.1+    141126 F51  0.1+  0.1+    150609 F51  0.1+  0.0
    130110 F51  0.0   0.0     141126 F51  0.1+  0.0     150609 F51  0.0   0.2-
    140105 F51  0.0   0.0     150120 F51  0.1+  0.1+    150609 F51  0.4-  0.0
    140105 F51  0.2-  0.0     150120 F51  0.0   0.1+
    
    Ephemeris:
    2014 AN55                a,e,i = 56.61, 0.39, 9                  q = 34.531
    Date    TT    R. A. (2000) Decl.     Delta      r     Elong.  Phase     V
    2016 06 17    09 24 54.2 +09 09 05  47.9477 47.3703    54.9     1.0    21.0
    ...
    2016 07 02    09 25 52.5 +09 05 24  48.1192 47.3558    40.9     0.8    21.0
    ...
    2016 07 10    09 26 28.2 +09 02 54  48.1919 47.3481    33.6     0.7    21.0
    ...
    2016 07 16    09 26 56.6 +09 00 50  48.2367 47.3423    28.1     0.6    21.0
    2016 07 17    09 27 01.5 +09 00 28  48.2433 47.3413    27.2     0.6    21.0
    2016 07 18    09 27 06.4 +09 00 06  48.2497 47.3403    26.2     0.5    21.0
    ...
    2016 07 24    09 27 36.3 +08 57 48  48.2826 47.3345    20.8     0.4    21.0
    ...
    2016 08 01    09 28 17.4 +08 54 30  48.3118 47.3268    13.8     0.3    21.0
    ...
    2016 08 16    09 29 36.5 +08 47 48  48.3194 47.3123     5.9     0.1    20.9
    
    A. U. Tomatic                (C) Copyright 2016 MPC           M.P.E.C. 2016-O192
    

    Read MPEC 2016-O191 Read MPEC 2016-O193


    MPEC number:

    Enter an MPEC number in one of the following forms:

    • 1997-B01 (the full form)
    • J97B01 (the packed version of the full form)
    • B01 (the abbreviated form)